Вернуться в каталог

OPS 0856 DEB

АктивенPO
NORAD 26671·DEBRIS·🇺🇸 United States

Запущен Aug 19, 1966 с Vandenberg Space Force Base

Loading…

Ближайшие Пролёты (ближайшие 24 часа)

TLE

УстаревающийSource: Space-Track

Эпоха: Sep 7, 2026, 07:34 UTC

1 26671U 66077Z   26250.31532625  .00000181  00000-0  55190-1 0  9991
2 26671  89.5863 212.7112 0677383 184.2585 175.2306  8.82619388 46946

Отслеживайте OPS 0856 DEB в реальном времени с AllMySat

Download on the App Store